| time (UTC) | temp F | wind direction | speed MPH | gust MPH | rain 1hr in | rain 24hr in | rain mn in | humidity % | barometer mb |
| 20260507054626 | 54 | 354 | 1.0 | 6.0 | 0.00 | 0.00 | 0.00 | 59 | 1015.3 |
| 20260507053032 | 54 | 359 | 1.0 | 4.0 | 0.00 | 0.00 | 0.00 | 59 | 1015.3 |
| 20260507051532 | 54 | 359 | 1.0 | 5.0 | 0.00 | 0.00 | 0.00 | 58 | 1015.2 |
| 20260507050035 | 55 | 359 | 1.0 | 5.0 | 0.00 | 0.00 | 0.00 | 58 | 1015.1 |
| 20260507044530 | 55 | 354 | 1.0 | 5.0 | 0.00 | 0.00 | 0.00 | 58 | 1015.0 |
| 20260507043058 | 55 | 359 | 1.0 | 4.0 | 0.00 | 0.00 | 0.00 | 58 | 1015.0 |
| 20260507041558 | 55 | 359 | 1.0 | 5.0 | 0.00 | 0.00 | 0.00 | 58 | 1015.0 |
| 20260507040049 | 55 | 359 | 0.0 | 6.0 | 0.00 | 0.00 | 0.00 | 58 | 1014.9 |
| 20260507034549 | 56 | 359 | 2.0 | 5.0 | 0.00 | 0.00 | 0.00 | 58 | 1014.9 |
| 20260507033047 | 56 | 359 | 4.0 | 9.0 | 0.00 | 0.00 | 0.00 | 57 | 1014.7 |
| 20260507031521 | 57 | 359 | 2.0 | 6.0 | 0.00 | 0.00 | 0.00 | 56 | 1014.8 |
| 20260507030020 | 57 | 359 | 2.0 | 8.0 | 0.00 | 0.00 | 0.00 | 55 | 1014.6 |
| 20260507024524 | 58 | 359 | 5.0 | 12.0 | 0.00 | 0.00 | 0.00 | 55 | 1014.6 |
| 20260507023051 | 58 | 359 | 4.0 | 11.0 | 0.00 | 0.00 | 0.00 | 55 | 1014.6 |
| 20260507021551 | 58 | 359 | 4.0 | 13.0 | 0.00 | 0.00 | 0.00 | 55 | 1014.5 |
| 20260507020048 | 58 | 359 | 3.0 | 11.0 | 0.00 | 0.00 | 0.00 | 55 | 1014.5 |
| 20260507014552 | 59 | 359 | 3.0 | 10.0 | 0.00 | 0.00 | 0.00 | 55 | 1014.6 |
| 20260507013054 | 59 | 359 | 4.0 | 11.0 | 0.00 | 0.00 | 0.00 | 55 | 1014.7 |
| 20260507011546 | 59 | 359 | 6.0 | 12.0 | 0.00 | 0.00 | 0.00 | 55 | 1014.9 |
| 20260507010053 | 59 | 359 | 8.0 | 14.0 | 0.00 | 0.00 | 0.00 | 55 | 1015.0 |
| 20260507004546 | 59 | 359 | 8.0 | 14.0 | 0.00 | 0.00 | 0.00 | 56 | 1015.0 |
| 20260507003042 | 59 | 359 | 8.0 | 15.0 | 0.00 | 0.00 | 0.00 | 55 | 1015.1 |
| 20260507001544 | 60 | 359 | 9.0 | 15.0 | 0.00 | 0.00 | 0.00 | 54 | 1015.2 |
| 20260507000015 | 61 | 359 | 10.0 | 15.0 | 0.00 | 0.00 | 0.00 | 53 | 1015.4 |
| 20260506234518 | 61 | 359 | 6.0 | 11.0 | 0.00 | 0.00 | 0.00 | 53 | 1015.5 |
| 20260506233006 | 61 | 359 | 3.0 | 8.0 | 0.00 | 0.00 | 0.00 | 53 | 1015.7 |
| 20260506231506 | 62 | 359 | 3.0 | 8.0 | 0.00 | 0.00 | 0.00 | 52 | 1015.8 |
| 20260506230005 | 62 | 359 | 3.0 | 8.0 | 0.00 | 0.00 | 0.00 | 52 | 1015.8 |
| 20260506224508 | 63 | 359 | 3.0 | 8.0 | 0.00 | 0.00 | 0.00 | 52 | 1015.8 |
| 20260506223038 | 63 | 359 | 2.0 | 8.0 | 0.00 | 0.00 | 0.00 | 51 | 1015.9 |
| 20260506221538 | 64 | 359 | 4.0 | 6.0 | 0.00 | 0.00 | 0.00 | 52 | 1015.8 |
| 20260506220036 | 64 | 359 | 4.0 | 10.0 | 0.00 | 0.00 | 0.00 | 52 | 1015.8 |
| 20260506214531 | 65 | 359 | 4.0 | 10.0 | 0.00 | 0.00 | 0.00 | 54 | 1015.8 |
| 20260506213031 | 64 | 359 | 5.0 | 9.0 | 0.00 | 0.00 | 0.00 | 58 | 1015.8 |
| 20260506211531 | 63 | 359 | 3.0 | 6.0 | 0.00 | 0.00 | 0.00 | 61 | 1015.6 |
| 20260506210022 | 63 | 359 | 4.0 | 6.0 | 0.00 | 0.00 | 0.00 | 61 | 1015.6 |
| 20260506204512 | 63 | 359 | 3.0 | 6.0 | 0.00 | 0.00 | 0.00 | 60 | 1015.3 |
| 20260506203113 | 63 | 359 | 2.0 | 8.0 | 0.00 | 0.00 | 0.00 | 60 | 1014.9 |
| 20260506201533 | 63 | 359 | 4.0 | 8.0 | 0.00 | 0.00 | 0.00 | 60 | 1015.0 |
| 20260506200037 | 63 | 359 | 7.0 | 9.0 | 0.00 | 0.00 | 0.00 | 60 | 1014.8 |
| 20260506194527 | 64 | 359 | 6.0 | 11.0 | 0.00 | 0.00 | 0.00 | 59 | 1014.7 |
| 20260506193028 | 64 | 359 | 6.0 | 14.0 | 0.00 | 0.00 | 0.00 | 59 | 1014.6 |
| 20260506191525 | 64 | 359 | 7.0 | 14.0 | 0.00 | 0.00 | 0.00 | 57 | 1014.6 |
| 20260506190124 | 65 | 359 | 11.0 | 16.0 | 0.00 | 0.00 | 0.00 | 56 | 1014.5 |
| 20260506184602 | 65 | 359 | 12.0 | 17.0 | 0.00 | 0.00 | 0.00 | 55 | 1014.5 |
| 20260506183054 | 66 | 359 | 11.0 | 20.0 | 0.00 | 0.00 | 0.00 | 54 | 1014.5 |
| 20260506181524 | 66 | 359 | 13.0 | 21.0 | 0.00 | 0.00 | 0.00 | 51 | 1014.5 |
| 20260506180022 | 66 | 359 | 13.0 | 21.0 | 0.00 | 0.00 | 0.00 | 48 | 1014.7 |
| 20260506174553 | 66 | 359 | 14.0 | 24.0 | 0.00 | 0.00 | 0.00 | 45 | 1014.7 |
| 20260506173105 | 67 | 359 | 13.0 | 24.0 | 0.00 | 0.00 | 0.00 | 45 | 1014.8 |
| 20260506171552 | 67 | 359 | 13.0 | 24.0 | 0.00 | 0.00 | 0.00 | 44 | 1014.9 |
| 20260506170056 | 66 | 359 | 17.0 | 23.0 | 0.00 | 0.00 | 0.00 | 45 | 1015.0 |
| 20260506164558 | 67 | 359 | 16.0 | 23.0 | 0.00 | 0.00 | 0.00 | 43 | 1015.0 |
| 20260506163046 | 68 | 359 | 14.0 | 24.0 | 0.00 | 0.00 | 0.00 | 39 | 1015.2 |
| 20260506161514 | 68 | 359 | 18.0 | 25.0 | 0.00 | 0.00 | 0.00 | 37 | 1015.1 |
| 20260506160016 | 68 | 359 | 16.0 | 25.0 | 0.00 | 0.00 | 0.00 | 38 | 1015.2 |
| 20260506154506 | 68 | 359 | 15.0 | 25.0 | 0.00 | 0.00 | 0.00 | 39 | 1015.3 |
| 20260506153041 | 68 | 359 | 16.0 | 21.0 | 0.00 | 0.00 | 0.00 | 40 | 1015.4 |
| 20260506151511 | 68 | 359 | 14.0 | 25.0 | 0.00 | 0.00 | 0.00 | 42 | 1015.4 |
| 20260506150011 | 68 | 359 | 17.0 | 22.0 | 0.00 | 0.00 | 0.00 | 42 | 1015.7 |
| 20260506144505 | 68 | 359 | 15.0 | 23.0 | 0.00 | 0.00 | 0.00 | 43 | 1015.9 |
| 20260506143006 | 69 | 359 | 13.0 | 22.0 | 0.00 | 0.00 | 0.00 | 39 | 1016.1 |
| 20260506141501 | 69 | 359 | 14.0 | 21.0 | 0.00 | 0.00 | 0.00 | 39 | 1016.2 |
| 20260506140100 | 70 | 359 | 10.0 | 19.0 | 0.00 | 0.00 | 0.00 | 41 | 1016.4 |
| 20260506134551 | 70 | 359 | 10.0 | 22.0 | 0.00 | 0.00 | 0.00 | 41 | 1016.6 |
| 20260506133057 | 70 | 359 | 14.0 | 20.0 | 0.00 | 0.00 | 0.00 | 36 | 1016.6 |
| 20260506131545 | 71 | 359 | 8.0 | 17.0 | 0.00 | 0.00 | 0.00 | 35 | 1016.8 |
| 20260506130015 | 70 | 359 | 11.0 | 17.0 | 0.00 | 0.00 | 0.00 | 35 | 1017.0 |
| 20260506123050 | 71 | 359 | 6.0 | 14.0 | 0.00 | 0.00 | 0.00 | 34 | 1017.2 |
| 20260506121558 | 72 | 359 | 1.0 | 8.0 | 0.00 | 0.00 | 0.00 | 30 | 1017.4 |
| 20260506114552 | 71 | 359 | 1.0 | 10.0 | 0.00 | 0.00 | 0.00 | 32 | 1017.7 |
| 20260506113049 | 70 | 359 | 2.0 | 5.0 | 0.00 | 0.00 | 0.00 | 32 | 1017.9 |
| 20260506111546 | 71 | 359 | 4.0 | 8.0 | 0.00 | 0.00 | 0.00 | 35 | 1017.9 |
| 20260506110043 | 69 | 359 | 4.0 | 9.0 | 0.00 | 0.00 | 0.00 | 35 | 1018.2 |
| 20260506104540 | 68 | 359 | 4.0 | 11.0 | 0.00 | 0.00 | 0.00 | 38 | 1018.2 |
| 20260506103035 | 68 | 359 | 3.0 | 11.0 | 0.00 | 0.00 | 0.00 | 38 | 1018.2 |
| 20260506101530 | 68 | 359 | 0.0 | 5.0 | 0.00 | 0.00 | 0.00 | 39 | 1018.4 |
| 20260506100026 | 68 | 359 | 2.0 | 6.0 | 0.00 | 0.00 | 0.00 | 39 | 1018.4 |
| 20260506094552 | 66 | 359 | 1.0 | 6.0 | 0.00 | 0.00 | 0.00 | 44 | 1018.3 |
| 20260506093051 | 64 | 359 | 3.0 | 8.0 | 0.00 | 0.00 | 0.00 | 45 | 1018.3 |
| 20260506091543 | 63 | 359 | 3.0 | 8.0 | 0.00 | 0.00 | 0.00 | 49 | 1018.4 |
| 20260506090042 | 62 | 359 | 3.0 | 11.0 | 0.00 | 0.00 | 0.00 | 51 | 1018.3 |
| 20260506084534 | 60 | 359 | 6.0 | 11.0 | 0.00 | 0.00 | 0.00 | 53 | 1018.3 |
| 20260506083034 | 60 | 359 | 6.0 | 12.0 | 0.00 | 0.00 | 0.00 | 53 | 1018.5 |
| 20260506081602 | 59 | 359 | 4.0 | 11.0 | 0.00 | 0.00 | 0.00 | 55 | 1018.5 |
| 20260506073034 | 57 | 359 | 5.0 | 10.0 | 0.00 | 0.00 | 0.00 | 58 | 1018.6 |
| 20260506071535 | 56 | 359 | 6.0 | 13.0 | 0.00 | 0.00 | 0.00 | 59 | 1018.7 |
| 20260506061540 | 54 | 359 | 2.0 | 10.0 | 0.00 | 0.00 | 0.00 | 60 | 1018.6 |